User: anonymous   Login
Location: Walnut Point State Park
(39.6958°N, 88.0345°W)
Time: 20:03:13
(UTC-05:00)
Language:

ATLAS 3B R/B - Orbit

View from above orbital plane
View from above orbital plane
View from above satellite
View from above satellite

Ground track
Ground track

The orbit data is extracted from the following two-line orbital elements,

1 28538U 05004B   18111.10476088 0.00000000  00000-0  00000-0 0    04
2 28538  63.8301 240.4074 0118000 147.5337 212.4663 13.43110038    08
Epoch (UTC): 21 April 2018 02:30:51
Eccentricity: 0.0118000
inclination: 63.8301°
perigee height: 1009 km
apogee height: 1186 km
right ascension of ascending node: 240.4074°
argument of perigee: 147.5337°
revolutions per day: 13.43110038
mean anomaly at epoch: 212.4663°
orbit number at epoch: 0

The dashed part of the orbit path shows where the satellite is in the earth's shadow,  

DLR